STARLINK-33944, 64209

Orbit data source: Space-Track

STARLINK-33944, 64209 is a payload satellite owned by SpaceX/Seattle (US) in LEO that was launched on Sat, 31 May 2025 UTC via an FALCON 9 launch vehicle from the Air Force Western Test Range (AFWTR). Payload-class satellites include a variety of spacecraft equipped with specific instruments for various scientific and technological missions. These include communications satellites like Starlink; space stations such as the ISS; scientific satellites like the Hubble; Earth observation satellites from companies like Planet Labs, Umbra, and HawkEye 360; GPS; miniature CubeSats for education and research; and military/defense satellites.

Loading next visibility...
Identifier
64209, 2025-117G
Orbit
LEO
Last TLE update
2 days ago
Origin
Manufacturer
SpaceX/Seattle
Mission
Operational Commercial Communications
Bus & Motor
STARLINK V2MO, Unknown motor
Mass
575 kg wet, ~530 kg dry
Launch date (UTC)
2025-05-31 (2 months ago)
Launch vehicle
FALCON 9
Launch site
Air Force Western Test Range (AFWTR)
Object type
Payload
Rocket body
Debris
Shape & HBR
Box + 1 Pan, 14.5 m
Radar Cross Section
41.120 m², Large (>1 m²)

Expand to show TLE details & history

TLE from 2 days ago
0 STARLINK-33944
1 64209U 25117G   25198.02359305  .00021584  00000-0  54777-3 0  9992
2 64209  53.1590  57.1365 0000875  73.8813 286.2288 15.39635367  8432
Epoch: 2025-07-17T00:33Z
TLE epoch observation values (Epoch: 2025-07-17T00:33:58.439Z)
Latitude
-0.00004°
Longitude
113.54762°
Altitude
447.923 km
Speed
7.645 km/s
True Right ascension
03h 48m 32s
True Declination
0° 00' 00"
Sunlit
Object was in daylight at epoch
Visualization orbit readout
Latitude
46.92024°
Longitude
-127.32571°
Altitude
451.594 km
Speed
7.648 km/s
Apparent Right ascension
15h 09m 09s
Apparent Declination
8° 10' 43"
Sunlit
Object is in daylight
Visualization observer readout
Local Sidereal Time
06:20:36
Azimuth
53.902° ENE
Elevation
-24.712°
Doppler factor
1
Orbital elements
Apogee altitude
448.042 km
Perigee altitude
446.847 km
Semi-major axis
6,825.581 km
Eccentricity
0.00009
Inclination
53.159°
RAAN
57.1365°
Arg. of periapsis
73.8813°
True anomaly
286.21917°
Mean anomaly
286.2288°
Eccentric anomaly
286.22399°
Mean motion
3.84887 °/min
Orbital period
93.53 mins
BSTAR
0.00054777
Loading maneuver chart data...
Loading SW <> Apogee altitude chart data...
Loading historical data...
Loading historical data...
Loading historical data...
Loading historical data...
Loading historical data...
Loading historical data...
Loading historical data...
|